{"data":{"norad_id":52681,"epoch":"2026-05-24T18:53:39.701184Z","epoch_age_seconds":103580,"freshness":"FRESH","line1":"1 52681U 22053AB  26144.78726506  .00000094  00000+0  23985-4 0  9995","line2":"2 52681  53.2165 162.5050 0000728  64.4876 295.6191 15.08837747222624","mean_motion":15.08837747,"eccentricity":7.28e-5,"inclination_deg":53.2165,"raan_deg":162.505,"arg_perigee_deg":64.4876,"mean_anomaly_deg":295.6191,"bstar":2.3985e-5,"rev_number":22262,"period_min":95.437697185342,"perigee_km":539.24665329869,"apogee_km":540.253897686,"semimajor_km":6917.8872754923,"source":"CELESTRAK","updated_at":"2026-05-25T13:38:17.234638Z"}}